Back to catalog

TITAN 4B R/B

AliveVLEO
NORAD 28647·ROCKET BODY·🇺🇸 United States

Launched Apr 30, 2005 from Cape Canaveral Space Force Station

Loading…

Next Passes (next 24 hours)

TLE

FreshSource: Space-Track

Epoch: Sep 14, 2026, 23:22 UTC

1 28647U 05016B   26257.97428194  .00022814  00000-0  39574-3 0  9993
2 28647  56.9942 148.3776 0053705  25.1332 335.2321 15.49240988406320

Track TITAN 4B R/B in real time with AllMySat

Download on the App Store